• Em Portugal
  • Lista de países
  • Para 7 dias
  • Temperatura da água
  • Mapas de satélite
  • Mapa do tempo
  • Widgets de tempo
  • user-avatar
    Iniciar Sessão

    Previsão horária em Rakowice

    Hoje, 23 Abril, Segunda-feira

    Tempo Temperatura Precipitação Vento Pressão Humidade
    00:00 +15°C° 0,2 mm 2 m/s 743 mmHg 72%
    01:00 +15°C° 0 mm 2 m/s 742 mmHg 71%
    02:00 +15°C° 0,3 mm 2 m/s 742 mmHg 73%
    03:00 +15°C° 0,3 mm 2 m/s 742 mmHg 75%
    04:00 +15°C° 0,3 mm 2 m/s 742 mmHg 78%
    05:00 +16°C° 0 mm 3 m/s 742 mmHg 77%
    06:00 +17°C° 0 mm 3 m/s 742 mmHg 76%
    07:00 +17°C° 0 mm 2 m/s 742 mmHg 74%
    08:00 +19°C° 0 mm 2 m/s 742 mmHg 68%
    09:00 +21°C° 0 mm 3 m/s 742 mmHg 61%
    10:00 +24°C° 0 mm 3 m/s 742 mmHg 55%
    11:00 +23°C° 0,1 mm 4 m/s 742 mmHg 53%
    12:00 +25°C° 0,1 mm 4 m/s 742 mmHg 51%
    13:00 +23°C° 0 mm 4 m/s 742 mmHg 53%
    14:00 +22°C° 0,5 mm 4 m/s 742 mmHg 60%
    15:00 +21°C° 0,5 mm 4 m/s 742 mmHg 67%
    16:00 +19°C° 0,5 mm 4 m/s 742 mmHg 74%
    17:00 +18°C° 0,3 mm 4 m/s 742 mmHg 78%
    18:00 +17°C° 0,3 mm 3 m/s 742 mmHg 81%
    19:00 +16°C° 0,3 mm 3 m/s 742 mmHg 85%
    20:00 +16°C° 0 mm 3 m/s 742 mmHg 87%
    21:00 +14°C° 0 mm 3 m/s 743 mmHg 89%
    22:00 +14°C° 0 mm 2 m/s 743 mmHg 91%
    23:00 +13°C° 0 mm 2 m/s 743 mmHg 92%

    Amanhã, 24 Abril, Terça-feira

    Tempo Temperatura Precipitação Vento Pressão Humidade
    00:00 +12°C° 0 mm 2 m/s 744 mmHg 93%
    01:00 +12°C° 0 mm 2 m/s 744 mmHg 93%
    02:00 +10°C° 0 mm 2 m/s 744 mmHg 93%
    03:00 +10°C° 0 mm 2 m/s 744 mmHg 93%
    04:00 +9°C° 0 mm 2 m/s 744 mmHg 93%
    05:00 +10°C° 0 mm 2 m/s 744 mmHg 88%
    06:00 +11°C° 0 mm 3 m/s 745 mmHg 84%
    07:00 +12°C° 0 mm 3 m/s 745 mmHg 79%
    08:00 +14°C° 0 mm 3 m/s 745 mmHg 72%
    09:00 +15°C° 0 mm 4 m/s 745 mmHg 65%
    10:00 +17°C° 0 mm 5 m/s 745 mmHg 57%
    11:00 +19°C° 0 mm 5 m/s 744 mmHg 54%
    12:00 +20°C° 0 mm 5 m/s 744 mmHg 51%
    13:00 +21°C° 0 mm 5 m/s 744 mmHg 48%
    14:00 +20°C° 0 mm 5 m/s 744 mmHg 48%
    15:00 +20°C° 0 mm 5 m/s 743 mmHg 49%
    16:00 +20°C° 0 mm 5 m/s 743 mmHg 49%
    17:00 +18°C° 0 mm 4 m/s 743 mmHg 56%
    18:00 +16°C° 0 mm 3 m/s 743 mmHg 64%
    19:00 +15°C° 0 mm 2 m/s 743 mmHg 72%
    20:00 +14°C° 0 mm 2 m/s 743 mmHg 77%
    21:00 +13°C° 0 mm 1 m/s 744 mmHg 82%
    22:00 +12°C° 0 mm 1 m/s 744 mmHg 88%
    23:00 +12°C° 0 mm 1 m/s 744 mmHg 87%

    Depois de amanhã, 25 Abril, Quarta-feira

    Tempo Temperatura Precipitação Vento Pressão Humidade
    00:00 +12°C° 0 mm 1 m/s 744 mmHg 87%
    01:00 +12°C° 0 mm 1 m/s 743 mmHg 87%
    02:00 +12°C° 0 mm 2 m/s 743 mmHg 86%
    03:00 +12°C° 0 mm 2 m/s 743 mmHg 86%
    04:00 +12°C° 0 mm 2 m/s 742 mmHg 85%
    05:00 +13°C° 0 mm 2 m/s 742 mmHg 82%
    06:00 +13°C° 0 mm 3 m/s 742 mmHg 79%
    07:00 +14°C° 0 mm 4 m/s 742 mmHg 75%
    08:00 +15°C° 0 mm 4 m/s 741 mmHg 69%
    09:00 +17°C° 0 mm 5 m/s 741 mmHg 64%
    10:00 +19°C° 0 mm 6 m/s 741 mmHg 58%
    11:00 +20°C° 0,1 mm 6 m/s 741 mmHg 56%
    12:00 +21°C° 0,1 mm 6 m/s 740 mmHg 55%
    13:00 +21°C° 0,1 mm 6 m/s 740 mmHg 53%
    14:00 +21°C° 0,3 mm 6 m/s 739 mmHg 55%
    15:00 +21°C° 0,3 mm 6 m/s 739 mmHg 57%
    16:00 +21°C° 0,3 mm 6 m/s 739 mmHg 59%
    17:00 +19°C° 0,5 mm 5 m/s 739 mmHg 68%
    18:00 +16°C° 0,5 mm 5 m/s 739 mmHg 77%
    19:00 +14°C° 0,5 mm 4 m/s 739 mmHg 86%
    20:00 +14°C° 0,1 mm 4 m/s 739 mmHg 88%
    21:00 +13°C° 0,1 mm 3 m/s 740 mmHg 89%
    22:00 +13°C° 0,1 mm 3 m/s 740 mmHg 90%
    23:00 +12°C° 0 mm 4 m/s 741 mmHg 91%

    26 Abril, Quinta-feira

    Tempo Temperatura Precipitação Vento Pressão Humidade
    00:00 +11°C° 0 mm 4 m/s 741 mmHg 91%
    01:00 +11°C° 0 mm 4 m/s 741 mmHg 92%
    02:00 +10°C° 0 mm 4 m/s 741 mmHg 92%
    03:00 +10°C° 0 mm 4 m/s 741 mmHg 93%
    04:00 +8°C° 0 mm 4 m/s 742 mmHg 94%
    05:00 +8°C° 0 mm 4 m/s 742 mmHg 90%
    06:00 +10°C° 0 mm 4 m/s 742 mmHg 87%
    07:00 +9°C° 0 mm 5 m/s 743 mmHg 84%
    08:00 +10°C° 0,2 mm 5 m/s 743 mmHg 76%
    09:00 +11°C° 0,2 mm 6 m/s 743 mmHg 68%
    10:00 +13°C° 0,2 mm 6 m/s 743 mmHg 61%
    11:00 +14°C° 0,1 mm 6 m/s 743 mmHg 56%
    12:00 +15°C° 0,1 mm 7 m/s 743 mmHg 51%
    13:00 +15°C° 0,1 mm 7 m/s 743 mmHg 47%
    14:00 +15°C° 0 mm 7 m/s 743 mmHg 46%
    15:00 +15°C° 0 mm 7 m/s 743 mmHg 45%
    16:00 +14°C° 0 mm 7 m/s 743 mmHg 45%
    17:00 +13°C° 0 mm 6 m/s 743 mmHg 51%
    18:00 +11°C° 0 mm 4 m/s 744 mmHg 57%
    19:00 +10°C° 0 mm 3 m/s 744 mmHg 64%
    20:00 +9°C° 0 mm 3 m/s 745 mmHg 67%
    21:00 +8°C° 0 mm 3 m/s 745 mmHg 71%
    22:00 +7°C° 0 mm 2 m/s 746 mmHg 75%
    23:00 +6°C° 0 mm 2 m/s 746 mmHg 75%

    27 Abril, Sexta-feira

    Tempo Temperatura Precipitação Vento Pressão Humidade
    00:00 +6°C° 0 mm 2 m/s 746 mmHg 76%
    01:00 +6°C° 0 mm 2 m/s 746 mmHg 76%
    02:00 +6°C° 0 mm 2 m/s 746 mmHg 77%
    03:00 +5°C° 0 mm 2 m/s 746 mmHg 77%
    04:00 +5°C° 0 mm 2 m/s 746 mmHg 78%
    05:00 +6°C° 0 mm 2 m/s 746 mmHg 73%
    06:00 +8°C° 0 mm 2 m/s 746 mmHg 69%
    07:00 +9°C° 0 mm 2 m/s 747 mmHg 65%
    08:00 +12°C° 0 mm 2 m/s 747 mmHg 58%
    09:00 +13°C° 0 mm 2 m/s 747 mmHg 52%
    10:00 +15°C° 0 mm 2 m/s 747 mmHg 45%
    11:00 +15°C° 0 mm 2 m/s 746 mmHg 44%
    12:00 +16°C° 0 mm 2 m/s 746 mmHg 43%
    13:00 +16°C° 0 mm 2 m/s 746 mmHg 42%
    14:00 +16°C° 0 mm 1 m/s 745 mmHg 41%
    15:00 +18°C° 0 mm 1 m/s 745 mmHg 41%
    16:00 +18°C° 0 mm 1 m/s 744 mmHg 41%
    17:00 +16°C° 0 mm 1 m/s 744 mmHg 48%
    18:00 +14°C° 0 mm 2 m/s 744 mmHg 55%
    19:00 +13°C° 0 mm 2 m/s 744 mmHg 63%
    20:00 +12°C° 0 mm 2 m/s 744 mmHg 65%
    21:00 +10°C° 0 mm 3 m/s 744 mmHg 67%
    22:00 +9°C° 0 mm 3 m/s 744 mmHg 69%
    23:00 +9°C° 0 mm 3 m/s 743 mmHg 68%

    28 Abril, Sábado

    Tempo Temperatura Precipitação Vento Pressão Humidade
    00:00 +9°C° 0 mm 3 m/s 743 mmHg 68%
    01:00 +9°C° 0 mm 3 m/s 743 mmHg 67%
    02:00 +9°C° 0 mm 3 m/s 742 mmHg 68%
    03:00 +9°C° 0 mm 3 m/s 742 mmHg 68%
    04:00 +8°C° 0 mm 3 m/s 742 mmHg 69%
    05:00 +10°C° 0 mm 3 m/s 741 mmHg 68%
    06:00 +11°C° 0 mm 3 m/s 741 mmHg 67%
    07:00 +12°C° 0 mm 3 m/s 741 mmHg 66%
    08:00 +14°C° 0 mm 3 m/s 741 mmHg 63%
    09:00 +18°C° 0 mm 3 m/s 741 mmHg 60%
    10:00 +20°C° 0 mm 3 m/s 741 mmHg 57%
    11:00 +21°C° 0 mm 2 m/s 741 mmHg 54%
    12:00 +23°C° 0 mm 2 m/s 741 mmHg 51%
    13:00 +24°C° 0 mm 2 m/s 741 mmHg 48%
    14:00 +24°C° 0 mm 1 m/s 741 mmHg 48%
    15:00 +24°C° 0 mm 1 m/s 740 mmHg 48%
    16:00 +24°C° 0 mm 1 m/s 740 mmHg 49%
    17:00 +23°C° 0 mm 1 m/s 740 mmHg 56%
    18:00 +21°C° 0 mm 1 m/s 740 mmHg 63%
    19:00 +19°C° 0 mm 1 m/s 740 mmHg 70%
    20:00 +18°C° 0 mm 1 m/s 740 mmHg 74%
    21:00 +16°C° 0 mm 1 m/s 740 mmHg 78%
    22:00 +15°C° 0 mm 1 m/s 740 mmHg 82%
    23:00 +15°C° 0 mm 1 m/s 740 mmHg 84%
    Mostrar mais